Daviess Cnty AP, Washington,, IN

9:16 PM EST on December 15, 2019 (GMT -0500)
Daviess County

Weather History for KDCY - October, 2019

Change the Weather History Date:

Wednesday, October 23, 2019

  Actual Average (KLWV) Record (KLWV)
Temperature  
Mean Temperature 52 °F -  
Max Temperature 66 °F 64 °F 81 °F (2000)
Min Temperature 37 °F 42 °F 30 °F (1997)
Degree Days  
Heating Degree Days 14    
Growing Degree Days 2 (Base 50)    
Moisture  
Dew Point 34 °F    
Average Humidity 52    
Maximum Humidity 83    
Minimum Humidity 31    
Precipitation  
Precipitation 0.00 in - - ()
Sea Level Pressure  
Sea Level Pressure 30.07 in    
Wind  
Wind Speed 10 mph (SSW)    
Max Wind Speed 20 mph    
Max Gust Speed 24 mph    
Visibility 10 miles    
Events      
Averages and records for this station are not official NWS values.
T = Trace of Precipitation, MM = Missing Value Source: NWS Daily Summary

Daily Weather History Graph

Daily Weather History Graph

Search for Another Location

Airport or City:

Astronomy

Oct. 23, 2019 Rise Set
Actual Time 8:05 AM EDT 6:59 PM EDT
Civil Twilight 7:38 AM EDT 7:26 PM EDT
Nautical Twilight 7:07 AM EDT 7:57 PM EDT
Astronomical Twilight 6:36 AM EDT 8:28 PM EDT
Moon 2:28 AM EDT (10/23) 4:45 PM EDT (10/23)
Length of Visible Light 11h 48m
Length of Day
10h 53m
Waning Crescent, 27% of the Moon is Illuminated
Oct 23
Waning Crescent
Oct 27
New
Nov 4
First Quarter
Nov 12
Full
Nov 19
Last Quarter

Hourly Weather History & Observations

Time (EDT) Temp. Windchill Dew Point Humidity Pressure Visibility Wind Dir Wind Speed Gust Speed Precip Events Conditions
12:15 AM 47.5 °F - 32.0 °F 55% 29.99 in 10.0 mi West 9.2 mph - N/A   Clear
12:35 AM 47.3 °F - 32.0 °F 55% 29.99 in 10.0 mi West 6.9 mph - N/A   Clear
12:55 AM 46.2 °F 42.2 °F 32.0 °F 58% 29.99 in 10.0 mi West 8.1 mph - N/A   Clear
1:15 AM 45.1 °F 40.8 °F 32.2 °F 60% 30.00 in 10.0 mi West 8.1 mph - N/A   Clear
1:35 AM 45.1 °F 40.8 °F 32.2 °F 60% 30.00 in 10.0 mi WSW 8.1 mph - N/A   Clear
1:55 AM 45.0 °F 40.6 °F 32.0 °F 60% 30.01 in 10.0 mi WSW 8.1 mph - N/A   Clear
2:15 AM 45.1 °F 40.8 °F 32.0 °F 60% 30.01 in 10.0 mi WSW 8.1 mph - N/A   Clear
2:35 AM 45.1 °F 40.8 °F 32.0 °F 60% 30.01 in 10.0 mi WSW 8.1 mph - N/A   Clear
2:55 AM 44.8 °F 39.4 °F 32.0 °F 61% 30.03 in 10.0 mi WSW 10.4 mph - N/A   Clear
3:15 AM 44.1 °F 39.5 °F 32.0 °F 63% 30.03 in 10.0 mi WSW 8.1 mph - N/A   Clear
3:35 AM 43.7 °F 38.6 °F 32.0 °F 63% 30.03 in 10.0 mi WSW 9.2 mph - N/A   Clear
3:55 AM 43.9 °F 39.3 °F 32.0 °F 63% 30.03 in 10.0 mi WSW 8.1 mph - N/A   Clear
4:15 AM 42.8 °F 37.0 °F 32.0 °F 66% 30.03 in 10.0 mi WSW 10.4 mph - N/A   Clear
4:35 AM 42.3 °F 36.8 °F 32.0 °F 67% 30.03 in 10.0 mi SW 9.2 mph - N/A   Clear
4:55 AM 41.9 °F 36.9 °F 32.4 °F 69% 30.04 in 10.0 mi SW 8.1 mph - N/A   Clear
5:15 AM 38.7 °F 36.3 °F 31.8 °F 76% 30.03 in 10.0 mi ESE 3.5 mph - N/A   Clear
5:35 AM 39.2 °F 35.0 °F 32.4 °F 76% 30.05 in 10.0 mi SSE 5.8 mph - N/A   Clear
5:55 AM 41.5 °F 38.6 °F 32.5 °F 70% 30.04 in 10.0 mi SSW 4.6 mph - N/A   Clear
6:15 AM 41.9 °F 36.3 °F 32.9 °F 70% 30.05 in 10.0 mi SSW 9.2 mph - N/A   Clear
6:35 AM 42.6 °F 36.8 °F 32.4 °F 67% 30.05 in 10.0 mi SW 10.4 mph - N/A   Clear
6:55 AM 42.8 °F 37.5 °F 32.2 °F 66% 30.05 in 10.0 mi SSW 9.2 mph - N/A   Clear
7:15 AM 38.7 °F - 32.2 °F 78% 30.06 in 10.0 mi Calm Calm - N/A   Clear
7:35 AM 37.6 °F 34.0 °F 32.9 °F 83% 30.07 in 10.0 mi SSW 4.6 mph - N/A   Clear
7:55 AM 41.9 °F 36.9 °F 32.4 °F 69% 30.07 in 10.0 mi SSW 8.1 mph - N/A   Clear
8:15 AM 42.4 °F 36.5 °F 32.4 °F 68% 30.08 in 10.0 mi SSW 10.4 mph - N/A   Clear
8:35 AM 43.7 °F 39.1 °F 32.4 °F 64% 30.08 in 10.0 mi SSW 8.1 mph - N/A   Clear
8:55 AM 44.4 °F 40.5 °F 33.6 °F 66% 30.09 in 10.0 mi South 6.9 mph - N/A   Clear
9:15 AM 46.2 °F 41.2 °F 33.8 °F 62% 30.10 in 10.0 mi SSW 10.4 mph - N/A   Clear
9:40 AM 48.4 °F - 34.0 °F 58% 30.11 in 10.0 mi SSW 11.5 mph - N/A   Clear
9:55 AM 49.3 °F - 34.3 °F 56% 30.12 in 10.0 mi SSW 12.7 mph - N/A   Clear
10:15 AM 50.9 °F - 35.2 °F 55% 30.12 in 10.0 mi SSW 11.5 mph - N/A   Clear
10:35 AM 52.9 °F - 35.1 °F 51% 30.13 in 10.0 mi SSW 11.5 mph 16.1 mph N/A   Clear
10:55 AM 54.7 °F - 35.1 °F 48% 30.12 in 10.0 mi SSW 12.7 mph - N/A   Clear
11:15 AM 56.8 °F - 34.0 °F 42% 30.12 in 10.0 mi SSW 10.4 mph 18.4 mph N/A   Clear
11:35 AM 58.1 °F - 35.1 °F 42% 30.12 in 10.0 mi SSW 11.5 mph - N/A   Clear
11:50 AM 59.0 °F - 35.8 °F 42% 30.12 in 10.0 mi SW 12.7 mph - N/A   Clear
12:10 PM 60.1 °F - 34.5 °F 38% 30.12 in 10.0 mi SSW 11.5 mph - N/A   Clear
12:35 PM 61.0 °F - 34.7 °F 37% 30.12 in 10.0 mi SSW 15.0 mph 23.0 mph N/A   Clear
12:55 PM 61.7 °F - 34.3 °F 36% 30.13 in 10.0 mi SSW 12.7 mph 21.9 mph N/A   Clear
1:15 PM 62.6 °F - 34.9 °F 36% 30.12 in 10.0 mi SSW 15.0 mph 23.0 mph N/A   Clear
1:35 PM 63.3 °F - 34.7 °F 34% 30.12 in 10.0 mi SSW 16.1 mph - N/A   Clear
1:55 PM 63.9 °F - 34.5 °F 34% 30.10 in 10.0 mi SSW 19.6 mph 23.0 mph N/A   Clear
2:15 PM 64.6 °F - 33.6 °F 32% 30.09 in 10.0 mi SSW 17.3 mph - N/A   Clear
2:35 PM 65.3 °F - 34.3 °F 32% 30.08 in 10.0 mi South 19.6 mph 24.2 mph N/A   Clear
2:55 PM 65.5 °F - 34.2 °F 31% 30.08 in 10.0 mi SSW 13.8 mph 19.6 mph N/A   Clear
3:15 PM 66.0 °F - 34.3 °F 31% 30.07 in 10.0 mi SSW 11.5 mph 23.0 mph N/A   Clear
3:35 PM 65.7 °F - 34.3 °F 31% 30.06 in 10.0 mi South 13.8 mph 21.9 mph N/A   Clear
3:55 PM 66.4 °F - 35.6 °F 32% 30.06 in 10.0 mi SSW 16.1 mph 24.2 mph N/A   Clear
4:15 PM 66.4 °F - 35.6 °F 32% 30.05 in 10.0 mi SSW 12.7 mph - N/A   Clear
4:35 PM 66.6 °F - 35.4 °F 32% 30.05 in 10.0 mi South 16.1 mph 20.7 mph N/A   Clear
4:50 PM 65.7 °F - 34.9 °F 32% 30.05 in 10.0 mi South 17.3 mph 21.9 mph N/A   Clear
5:15 PM 65.7 °F - 34.7 °F 32% 30.06 in 10.0 mi South 12.7 mph 21.9 mph N/A   Clear
5:35 PM 66.0 °F - 36.0 °F 33% 30.06 in 10.0 mi SSW 11.5 mph - N/A   Clear
5:55 PM 65.3 °F - 34.5 °F 32% 30.05 in 10.0 mi South 15.0 mph - N/A   Clear
6:15 PM 64.2 °F - 35.8 °F 35% 30.05 in 10.0 mi South 16.1 mph - N/A   Clear
6:35 PM 61.9 °F - 36.5 °F 39% 30.06 in 10.0 mi South 11.5 mph - N/A   Clear
7:15 PM 58.1 °F - 37.8 °F 47% 30.07 in 10.0 mi South 9.2 mph - N/A   Clear
7:35 PM 56.8 °F - 37.9 °F 49% 30.07 in 10.0 mi South 9.2 mph - N/A   Clear
7:55 PM 55.6 °F - 37.9 °F 52% 30.08 in 10.0 mi South 9.2 mph - N/A   Clear
8:10 PM 55.2 °F - 38.1 °F 53% 30.08 in 10.0 mi South 9.2 mph - N/A   Clear
8:35 PM 54.7 °F - 37.9 °F 53% 30.08 in 10.0 mi South 9.2 mph - N/A   Clear
8:55 PM 54.7 °F - 37.6 °F 53% 30.08 in 10.0 mi South 10.4 mph - N/A   Clear
9:15 PM 53.4 °F - 37.8 °F 55% 30.08 in 10.0 mi South 10.4 mph - N/A   Clear
9:35 PM 51.3 °F - 37.9 °F 60% 30.08 in 10.0 mi South 9.2 mph - N/A   Clear
9:55 PM 51.8 °F - 37.8 °F 59% 30.08 in 10.0 mi South 9.2 mph - N/A   Clear
10:15 PM 52.2 °F - 37.6 °F 58% 30.08 in 10.0 mi South 10.4 mph - N/A   Clear
10:35 PM 52.0 °F - 37.4 °F 58% 30.10 in 10.0 mi South 9.2 mph - N/A   Clear
10:55 PM 54.0 °F - 36.9 °F 52% 30.11 in 10.0 mi SSW 10.4 mph - N/A   Clear
11:15 PM 53.4 °F - 37.0 °F 54% 30.12 in 10.0 mi SSW 8.1 mph - N/A   Clear
11:35 PM 54.1 °F - 36.9 °F 52% 30.13 in 10.0 mi SSW 8.1 mph - N/A   Clear
11:55 PM 54.5 °F - 36.7 °F 51% 30.13 in 10.0 mi South 9.2 mph - N/A   Scattered Clouds